Location: Asheville, NC
(35.6000°N, 82.5500°W)
Time: 00:30:52
(UTC-04:00)

AO-7 - Pass Details

Date: 17 March 2018
Orbit: 1440 x 1458 km, 101.7° (Epoch: 24 June)

Event Time Altitude Azimuth Distance (km) Brightness Sun altitude
Rises 04:00:21 0° 28° (NNE) 4,541 ? -42.5°
Reaches altitude 10° 04:03:38 10° 39° (NE) 3,557 ? -42.0°
Maximum altitude 04:10:41 30° 98° (E) 2,335 ? -40.8°
Enters shadow 04:14:33 21° 138° (SE) 2,762 ? -40.2°
